Regional Weather Roundup
Issued by NWS

Home | Current Version | Previous Version | Text Only | Print | Product List | Glossary Off
Versions: 1 2 3 4 5 6 7 8 9 10 11 12 13 14 15 16 17 18 19 20 21 22 23 24 25 26 27 28 29 30 31 32 33 34 35 36 37 38 39 40 41 42 43 44 45 46 47 48 49 50

000
ASUS43 KMKX 280500
RWRWI

WISCONSIN REGIONAL WEATHER ROUNDUP
NATIONAL WEATHER SERVICE MILWAUKEE/SULLIVAN WI
1200 AM CDT TUE APR 28 2015

NOTE: "FAIR" INDICATES FEW OR NO CLOUDS BELOW 12,000 FEET WITH NO
SIGNIFICANT WEATHER AND/OR OBSTRUCTIONS TO VISIBILITY.

WIZ001-002-006>008-014>016-023>028-280600-
NORTHWEST WISCONSIN

CITY           SKY/WX    TMP DP  RH WIND       PRES   REMARKS
SUPERIOR ARPT  CLEAR     37  32  84 CALM      30.16F
ASHLAND        CLEAR     36  29  75 CALM      30.16F
HAYWARD        CLEAR     38  30  73 CALM      30.15S
SIREN          CLEAR     42  28  58 CALM      30.14S
CUMBERLAND     CLEAR     45  28  53 CALM      30.15R
RICE LAKE      CLEAR     42  35  75 CALM      30.16S
CHETEK         CLEAR     44  32  62 CALM      30.15S
LADYSMITH      CLEAR     43  30  61 CALM      30.17R
EAU CLAIRE     NOT AVBL
MENOMONIE      CLEAR     49  30  47 CALM      30.14S
NEW RICHMOND   CLEAR     44  35  70 CALM      30.15S
OSCEOLA        CLEAR     43  33  68 CALM      30.16F
$$

WIZ003>005-009-010-017-018-280600-
NORTH CENTRAL WISCONSIN

CITY           SKY/WX    TMP DP  RH WIND       PRES   REMARKS
MANITOWISH WTR CLEAR     34  32  92 CALM      30.15S
ARBOR VITAE    CLEAR     37  28  69 CALM      30.15S
WOODRUFF       CLEAR     37  28  69 CALM      30.15S
RHINELANDER    CLEAR     43  25  49 N3        30.16R
EAGLE RIVER    CLEAR     32  27  81 CALM      30.15R
LAND O LAKES   CLEAR     31  29  94 CALM      30.16S
PHILLIPS       CLEAR     36  29  76 CALM      30.14F
TOMAHAWK       CLEAR     33  27  76 CALM      30.15R
MEDFORD        CLEAR     42  28  57 N3        30.14S
MERRILL        CLEAR     38  28  68 CALM      30.14R
$$

WIZ029-030-035-036-043>047-280600-
CENTRAL WISCONSIN

CITY           SKY/WX    TMP DP  RH WIND       PRES   REMARKS
WAUSAU         CLEAR     47  30  51 E7        30.14R
MOSINEE        CLEAR     45  28  53 E7        30.15R
MARSHFIELD     CLEAR     50  28  42 NE6       30.13R
STEVENS POINT  CLEAR     44  33  67 E6        30.15R
WAUPACA        CLEAR     44  35  69 CALM      30.16S
WAUTOMA        NOT AVBL
WISC RAPIDS    CLEAR     48  34  58 SE8       30.15R
CAMP DOUGLAS   NOT AVBL
$$

WIZ011>013-019>022-031-037>040-048>050-280600-
NORTHEAST WISCONSIN

CITY           SKY/WX    TMP DP  RH WIND       PRES   REMARKS
ANTIGO         CLEAR     40  33  75 SE7       30.16R
SHAWANO        CLEAR     42  35  78 E3        30.16S
OCONTO         CLEAR     42  34  73 CALM      30.16S
STURGEON BAY   CLEAR     39  30  70 N6        30.18S WCI  35
GREEN BAY      CLEAR     39  34  82 N3        30.16S
MANITOWOC      NOT AVBL
APPLETON       CLEAR     41  32  70 CALM      30.16R
CLINTONVILLE   CLEAR     39  32  75 CALM      30.16S
OSHKOSH        CLEAR     43  33  68 CALM      30.15S
$$

WIZ032>034-041-042-053>061-280600-
SOUTHWEST WISCONSIN

CITY           SKY/WX    TMP DP  RH WIND       PRES   REMARKS
LA CROSSE      CLEAR     50  37  61 CALM      30.12R
SPARTA         CLEAR     38  31  73 CALM      30.13R
VIROQUA        CLEAR     51  31  46 N6        30.12R
BOSCOBEL       CLEAR     43  35  73 CALM      30.11S
PRAIRIE DU CHI CLEAR     45  35  67 CALM      30.11S
PLATTEVILLE    CLEAR     52  33  49 NW6       30.10S
$$

WIZ056-057-062-063-064-067-068-280600-
SOUTH CENTRAL WISCONSIN

CITY           SKY/WX    TMP DP  RH WIND       PRES   REMARKS
REEDSBURG      CLEAR     44  35  70 CALM      30.10R
BARABOO/DELLS  CLEAR     45  33  61 E6        30.10R
LONE ROCK      NOT AVBL
MINERAL POINT  CLEAR     50  32  50 W6        30.09S
MADISON        CLEAR     44  35  70 E9        30.13R
MIDDLETON      CLEAR     50  35  56 SE8G16    30.12R
WATERTOWN      CLEAR     39  33  80 NE3       30.13S
MONROE         CLEAR     45  36  70 SE8       30.10S
JANESVILLE     CLEAR     41  34  75 E6        30.13S
$$

WIZ051-052-058>065-066-070>072-280600-
SOUTHEAST WISCONSIN

CITY           SKY/WX    TMP DP  RH WIND       PRES   REMARKS
MILWAUKEE      CLEAR     42  30  62 N7        30.13F
WAUKESHA       CLEAR     37  30  75 CALM      30.14S
MILWAUKEE/TIMM CLEAR     37  32  81 CALM      30.13F
RACINE         CLEAR     41  31  67 NW7       30.13F
BURLINGTON     CLEAR     35  30  82 CALM      30.13S
KENOSHA        CLEAR     36  31  82 N5        30.12F WCI  32
FOND DU LAC    CLEAR     42  30  62 E3        30.14F
SHEBOYGAN      CLEAR     35  31  85 NW5       30.14S WCI  31
WEST BEND      CLEAR     36  32  87 CALM      30.14S
JUNEAU         CLEAR     41  33  73 E3        30.15S
$$

LSZ147-162-280600-
LAKE SUPERIOR

STATION/POSITION TIME  TEMP    WIND        PRES    WAVE
                       AIR SEA DIR/SP/G            HT/PER
                 (UTC) (F)     (DEG/KT/KT) (MB)    (FT/S)
W MID LAKE BUOY  0350   37 34   10/  4/  4 1023.1S   0
DEVILS ISLAND    0400   38      70/  7/  7 1022.2S
PORT WING        0400   38     270/  1/  2 1021.3S
SAXON HARBOR     0440   35        CALM     1020.7F
$$

LMZ867-665-643>646-280600-
LAKE MICHIGAN

STATION/POSITION TIME  TEMP    WIND        PRES    WAVE
                       AIR SEA DIR/SP/G            HT/PER
                 (UTC) (F)     (DEG/KT/KT) (MB)    (FT/S)
CHAMBERS ISLAND  0400   40     340/  3/  5 1021.7R
NORTHPORT PIER   0400   42     360/  6/  7 1021.3R
SISTER BAY       0317   43      40/  4/  7   N/A
KEWAUNEE LAKESHO 0406   44      20/  7/ 12 1020.0F
SHEBOYGAN LAKESH 0400   44     330/  5/  6 1021.4S
PORT WASHINGTON  0400   44     310/  4/  6 1021.0S
MILWAUKEE LAKESH 0400   45     310/  5/  6   N/A
KENOSHA   LAKESH 0400   44     310/  5/  6 1020.0F
$$

TC  - TEMPERATURE IN CELSIUS
VSB - VISIBILITY IN STATUTE MILES
WCI - WIND CHILL INDEX
HX  - HEAT INDEX



USA.gov is the U.S. government's official web portal to all federal, state and local government web resources and services.